[[{"header":{"parameterUnit":"m.s-1","parameterCategory":2,"la1":30.2991,"la2":30.254,"lo1":-89.0895,"lo2":-89.0444,"dy":0.0017,"dx":0.0017,"nx":28,"ny":28,"refTime":"2024-12-02T09:00:00:Z","depth":"0","parameterNumber":2,"parameterNumberName":"U-component_of_CURRENTS"},"data":[0,0,0,0,0,0,0,0,0,0,0,0,0,0,0,0,0,0,0,0,0,0,0,0,0,0,0,0,0,0,0,0,0,0,0,0,0,0,0,0,0,0,0,0,0,0,0,0,0,0,0,0,0,0,0,0,0,0,0.3519,0.352,0,0.3569,0.3569,0.3569,0.3557,0.3556,0.3556,0.3555,0.3555,0.3556,0.3556,0,0,0,0,0,0,0,0,0,0,0,0,0,0.3422,0.3423,0.3519,0.352,0.3521,0.3569,0.3569,0.3569,0.3557,0.3556,0.3555,0.3555,0.3555,0.3556,0.3556,0,0,0,0,0,0,0,0,0,0,0,0,0,0.3463,0.3424,0.3519,0.3524,0.3525,0.3569,0.3569,0.3569,0.3557,0.3556,0.3555,0.3554,0.3555,0.3556,0.3557,0.3578,0,0,0.3559,0.3559,0,0,0,0,0,0,0,0,0.346,0.3466,0.3522,0.3524,0.3525,0.356,0.3535,0.3571,0.3557,0.354,0.3555,0.3554,0.3556,0.3557,0.3562,0.3578,0.3578,0.3559,0.3559,0.356,0.356,0,0,0,0,0,0,0,0.3457,0.3464,0.3534,0.3523,0.3525,0.3527,0.3531,0.3542,0.3548,0.3541,0.3542,0.3555,0.3556,0.3561,0.3562,0.3578,0.3559,0.356,0.356,0.356,0.3673,0.3676,0,0,0,0,0,0,0.3461,0.3461,0.3533,0.3536,0.3495,0.353,0.3534,0.3546,0.3549,0.355,0.3556,0.3554,0.356,0.3561,0.3562,0.3637,0.356,0.3561,0.3561,0.3671,0.3674,0.3677,0,0,0,0,0,0,0.3459,0.3467,0.3531,0.3503,0.3512,0.3533,0.3545,0.3547,0.3558,0.3561,0.356,0.3566,0.356,0.3561,0.3591,0.3634,0.3561,0.3562,0.3668,0.3672,0.3675,0.3755,0,0,0,0,0,0,0.3456,0.3466,0.3475,0.3504,0.3514,0.357,0.3547,0.3549,0.357,0.3568,0.3569,0.3568,0.3559,0.359,0.3592,0.3634,0.3562,0.3665,0.367,0.3674,0.3749,0.3761,0.3771,0,0,0,0,0,0.3452,0.3468,0.3474,0.3484,0.3525,0.3572,0.3577,0.3585,0.3571,0.3588,0.3592,0.3568,0.3622,0.3593,0.3594,0.3638,0.3662,0.3668,0.3674,0.3744,0.3758,0.3771,0,0,0,0,0,0,0.3425,0.347,0.3477,0.3504,0.3543,0.3571,0.3588,0.3593,0.361,0.3605,0.3594,0.3595,0.3642,0.3632,0.36,0.3687,0.3641,0.3647,0.3694,0.3707,0.3718,0.3727,0.3563,0,0,0,0,0,0.3426,0.3452,0.3496,0.3519,0.354,0.3565,0.3583,0.3594,0.3615,0.3621,0.3623,0.3636,0.3668,0.3679,0.3697,0.3738,0.3741,0.3771,0.3782,0.3791,0.3803,0.3859,0.3876,0.3695,0.3695,0.3695,0,0,0.342,0.3451,0.3463,0.3516,0.3542,0.3585,0.3573,0.3611,0.3647,0.3619,0.3659,0.3672,0.3688,0.3741,0.3761,0.3736,0.3844,0.3799,0.3806,0.3813,0.3867,0.3884,0.3899,0.3699,0.3698,0.3698,0,0,0.3431,0.3453,0.3482,0.3521,0.3575,0.36,0.3615,0.3655,0.3673,0.3718,0.3719,0.3762,0.3786,0.3823,0.3842,0.3926,0.3901,0.3929,0.399,0.4045,0.406,0.4073,0.409,0.4104,0.3933,0.3933,0.3933,0,0.3419,0.3465,0.3498,0.3543,0.3578,0.361,0.3654,0.3688,0.3732,0.3761,0.3739,0.3825,0.3833,0.3924,0.3956,0.3952,0.3961,0.3934,0.4058,0.4071,0.4084,0.4098,0.4113,0.3938,0.3937,0.3937,0.3936,0,0.3457,0.3497,0.352,0.3588,0.3633,0.3676,0.3736,0.3776,0.3796,0.3831,0.3913,0.3939,0.3989,0.401,0.4006,0.4111,0.4081,0.4065,0.402,0.4107,0.4116,0.413,0.3944,0.3943,0.3941,0.394,0,0,0.3414,0.3523,0.353,0.3567,0.366,0.3693,0.3776,0.3858,0.3908,0.3957,0.4028,0.4103,0.4114,0.4138,0.4153,0.4206,0.4296,0.4174,0.4174,0.4183,0.4395,0.4368,0.438,0.4299,0.4302,0.4305,0.4363,0,0.343,0.3507,0.357,0.3643,0.3687,0.3759,0.3829,0.3907,0.3972,0.4046,0.4109,0.4176,0.4166,0.4194,0.4253,0.4288,0.4338,0.428,0.4317,0.4318,0.4278,0.4398,0.4275,0.4317,0.4376,0.4378,0.438,0,0.3441,0.3493,0.3564,0.3668,0.3694,0.3742,0.3857,0.3928,0.4057,0.4115,0.4209,0.4247,0.4353,0.4316,0.4432,0.4393,0.4405,0.4423,0.4425,0.4384,0.4319,0.4244,0.4339,0.4269,0.44,0.4399,0.4397,0,0.3377,0.3486,0.3536,0.3572,0.3695,0.3738,0.3803,0.3935,0.4015,0.4159,0.4224,0.4344,0.4404,0.4459,0.4506,0.4471,0.4614,0.4562,0.4551,0.4546,0.4442,0.4424,0.4468,0.4645,0.4645,0.4645,0.4645,0,0.3362,0.3399,0.3501,0.3525,0.3587,0.3686,0.3769,0.3872,0.4021,0.4117,0.424,0.434,0.4445,0.4533,0.4549,0.4609,0.4651,0.4592,0.4583,0.4465,0.445,0.4381,0.4346,0.4647,0.4647,0.4646,0.4646,0,0.3285,0.3356,0.3412,0.3522,0.3557,0.3592,0.3739,0.3802,0.3961,0.4094,0.4143,0.4358,0.4483,0.457,0.4676,0.4665,0.4607,0.4719,0.4562,0.4534,0.443,0.4403,0.4265,0.4124,0.4705,0.4705,0.4705,0,0.3254,0.3274,0.3378,0.34,0.3446,0.3517,0.3569,0.3748,0.3834,0.4095,0.415,0.4346,0.4466,0.4635,0.4685,0.4736,0.4602,0.4623,0.4544,0.4445,0.4408,0.4222,0.4098,0.4424,0.4422,0.442,0.4419,0,0.3186,0.3219,0.3259,0.3309,0.3353,0.341,0.3503,0.3572,0.3779,0.3907,0.4086,0.4211,0.444,0.449,0.4609,0.462,0.443,0.4585,0.4534,0.4254,0.4003,0.3854,0.4342,0.4402,0.4404,0.4405,0.4406,0.4407,0.3117,0.312,0.3167,0.3204,0.3248,0.3277,0.328,0.3406,0.3521,0.369,0.3908,0.405,0.4282,0.4458,0.4442,0.44,0.4327,0.4283,0.4276,0.4107,0.3925,0.4374,0.4396,0.4398,0.4399,0.44,0.4401,0,0.3017,0.3033,0.3061,0.3088,0.3072,0.3143,0.321,0.3194,0.3256,0.3491,0.3629,0.3869,0.3997,0.4153,0.4255,0.4128,0.3904,0.402,0.3739,0.3642,0.4107,0.4053,0.3941,0.3941,0.3941,0.3941,0.3941,0.3941,0.2966,0.2941,0.2957,0.2897,0.2905,0.2839,0.2835,0.286,0.2983,0.3125,0.3275,0.3467,0.3879,0.415,0.4105,0.3986,0.3658,0.3509,0.3458,0.3839,0.3862,0.3883,0.3826,0.3668,0.3668,0.2827,0.2822,0.2817]},{"header":{"parameterUnit":"m.s-1","parameterCategory":2,"la1":30.2991,"la2":30.254,"lo1":-89.0895,"lo2":-89.0444,"dy":0.0017,"dx":0.0017,"nx":28,"ny":28,"refTime":"2024-12-02T09:00:00:Z","depth":"0","parameterNumber":3,"parameterNumberName":"V-component_of_CURRENTS"},"data":[0,0,0,0,0,0,0,0,0,0,0,0,0,0,0,0,0,0,0,0,0,0,0,0,0,0,0,0,0,0,0,0,0,0,0,0,0,0,0,0,0,0,0,0,0,0,0,0,0,0,0,0,0,0,0,0,0,0,-0.0133,-0.0133,0,-0.0216,-0.0217,-0.0218,-0.0274,-0.0274,-0.0274,-0.0274,-0.0379,-0.0381,-0.0384,0,0,0,0,0,0,0,0,0,0,0,0,0,-0.0088,-0.0089,-0.0132,-0.0133,-0.0134,-0.0216,-0.0217,-0.0218,-0.0274,-0.0274,-0.0274,-0.0274,-0.0378,-0.0381,-0.0384,0,0,0,0,0,0,0,0,0,0,0,0,0,-0.0135,-0.0089,-0.0132,-0.017,-0.0174,-0.0216,-0.0217,-0.0219,-0.0273,-0.0274,-0.0274,-0.0274,-0.0377,-0.038,-0.0384,-0.0402,0,0,-0.0396,-0.0398,0,0,0,0,0,0,0,0,-0.0132,-0.0136,-0.0164,-0.0168,-0.0172,-0.0233,-0.024,-0.028,-0.0273,-0.0238,-0.0274,-0.0274,-0.033,-0.0338,-0.0355,-0.0407,-0.0411,-0.0396,-0.0399,-0.04,-0.0402,0,0,0,0,0,0,0,-0.0129,-0.0134,-0.0167,-0.0165,-0.017,-0.0206,-0.0213,-0.0248,-0.0283,-0.0241,-0.0245,-0.0251,-0.0333,-0.0352,-0.0358,-0.0413,-0.0396,-0.04,-0.0402,-0.0404,-0.0477,-0.0476,0,0,0,0,0,0,-0.0111,-0.013,-0.0165,-0.017,-0.015,-0.0206,-0.0214,-0.0215,-0.0282,-0.0292,-0.0251,-0.0253,-0.0345,-0.0354,-0.0362,-0.0365,-0.04,-0.0404,-0.0406,-0.0477,-0.0476,-0.0476,0,0,0,0,0,0,-0.0109,-0.0113,-0.0161,-0.0151,-0.0159,-0.0206,-0.0207,-0.0216,-0.023,-0.0289,-0.03,-0.0254,-0.0345,-0.0357,-0.0385,-0.0371,-0.0406,-0.0409,-0.0477,-0.0477,-0.0476,-0.0386,0,0,0,0,0,0,-0.0108,-0.0112,-0.0107,-0.0149,-0.0159,-0.0171,-0.0207,-0.0217,-0.0232,-0.0237,-0.0296,-0.0306,-0.0346,-0.0379,-0.0389,-0.0377,-0.0412,-0.0478,-0.0477,-0.0476,-0.0389,-0.0382,-0.0376,0,0,0,0,0,-0.0106,-0.0088,-0.0106,-0.011,-0.015,-0.017,-0.0179,-0.0215,-0.0232,-0.023,-0.0272,-0.0304,-0.0381,-0.0381,-0.0393,-0.0382,-0.0478,-0.0477,-0.0477,-0.0392,-0.0384,-0.0376,0,0,0,0,0,0,-0.0065,-0.0093,-0.0113,-0.0106,-0.0132,-0.0179,-0.018,-0.0206,-0.0239,-0.0241,-0.03,-0.0313,-0.0334,-0.0371,-0.0369,-0.0402,-0.0435,-0.0436,-0.0367,-0.0359,-0.0353,-0.0324,-0.0416,0,0,0,0,0,-0.0053,-0.005,-0.0086,-0.0081,-0.0089,-0.0134,-0.0147,-0.0169,-0.0204,-0.0218,-0.0262,-0.0305,-0.0341,-0.0358,-0.0397,-0.0413,-0.0447,-0.0414,-0.0407,-0.0401,-0.0387,-0.0432,-0.0427,-0.0473,-0.0473,-0.0473,0,0,-0.0037,-0.0052,-0.005,-0.0072,-0.0096,-0.0091,-0.0142,-0.015,-0.0147,-0.0224,-0.0234,-0.0285,-0.0341,-0.036,-0.0372,-0.0387,-0.0405,-0.04,-0.0394,-0.0383,-0.043,-0.0426,-0.0422,-0.0473,-0.0473,-0.0473,0,0,0.0009,-0.0013,0.0008,-0.0007,-0.003,-0.0054,-0.0051,-0.0091,-0.0111,-0.0131,-0.0184,-0.0222,-0.0278,-0.0314,-0.034,-0.032,-0.0371,-0.0334,-0.0275,-0.0319,-0.0315,-0.0312,-0.0342,-0.0343,-0.0328,-0.0328,-0.0328,0,0.003,0.0051,0.0011,0.0028,0.003,-0.0029,-0.0,-0.003,-0.0076,-0.0084,-0.0118,-0.02,-0.0253,-0.0273,-0.0271,-0.0303,-0.0333,-0.0298,-0.0309,-0.0307,-0.0305,-0.0337,-0.0339,-0.0323,-0.0324,-0.0324,-0.0325,0,0.009,0.0106,0.0119,0.0123,0.0119,0.0132,0.0095,0.0082,0.0048,0.0014,-0.002,-0.0101,-0.0144,-0.0175,-0.022,-0.0233,-0.0258,-0.0296,-0.0323,-0.0295,-0.0331,-0.0334,-0.0317,-0.0319,-0.032,-0.0321,0,0,0.0149,0.0161,0.0167,0.0191,0.0174,0.0183,0.0187,0.0178,0.0193,0.0121,0.0127,0.0039,-0.0011,-0.0044,-0.0112,-0.0158,-0.0184,-0.0215,-0.022,-0.0234,-0.0268,-0.0286,-0.0292,-0.0225,-0.0225,-0.0225,-0.0294,0,0.0211,0.0274,0.0258,0.0321,0.0354,0.031,0.0322,0.0302,0.027,0.0257,0.0161,0.0135,0.0041,0.0022,-0.0039,-0.0144,-0.019,-0.016,-0.0303,-0.0306,-0.0318,-0.0296,-0.0276,-0.0336,-0.0298,-0.0299,-0.0299,0,0.0282,0.0317,0.039,0.0432,0.0442,0.046,0.0482,0.0486,0.0443,0.0419,0.0367,0.0288,0.0213,0.0125,-0.0033,-0.0009,-0.0125,-0.0217,-0.0223,-0.0271,-0.033,-0.0362,-0.0345,-0.057,-0.0305,-0.0305,-0.0304,0,0.0357,0.0415,0.0481,0.0492,0.052,0.054,0.055,0.0533,0.0565,0.0522,0.0536,0.042,0.0379,0.0216,0.0018,-0.0005,-0.0158,-0.0216,-0.034,-0.0342,-0.0368,-0.0372,-0.0576,-0.0325,-0.0325,-0.0325,-0.0325,0,0.0437,0.0491,0.052,0.0554,0.064,0.0621,0.0698,0.0689,0.0699,0.0762,0.0626,0.0645,0.0398,0.0274,0.0074,-0.013,-0.0116,-0.0318,-0.0359,-0.0336,-0.0336,-0.057,-0.0718,-0.0327,-0.0327,-0.0326,-0.0326,0,0.0511,0.0525,0.0607,0.0652,0.0677,0.0734,0.0811,0.0867,0.0855,0.0933,0.0929,0.0823,0.0667,0.0412,0.0158,-0.0035,-0.0382,-0.0327,-0.0276,-0.031,-0.0638,-0.0781,-0.1043,-0.1139,-0.0468,-0.0469,-0.047,0,0.0554,0.0603,0.0688,0.0748,0.0771,0.0855,0.0921,0.0946,0.1026,0.1056,0.1111,0.098,0.0928,0.0543,0.0176,-0.0164,-0.0404,-0.0382,-0.0433,-0.0644,-0.0836,-0.0944,-0.1013,-0.0432,-0.0433,-0.0433,-0.0433,0,0.0639,0.0661,0.0729,0.0854,0.0936,0.1047,0.1145,0.1237,0.1284,0.1351,0.1415,0.1371,0.1009,0.0684,0.0203,-0.0059,-0.0551,-0.0398,-0.0638,-0.0837,-0.0949,-0.1063,-0.0397,-0.0436,-0.0435,-0.0435,-0.0435,-0.0435,0.07,0.0762,0.0849,0.0973,0.1076,0.1216,0.1327,0.1448,0.1594,0.1717,0.1662,0.1656,0.116,0.0512,0.0125,-0.0562,-0.0591,-0.0765,-0.0922,-0.1011,-0.111,-0.0439,-0.0515,-0.0516,-0.0516,-0.0516,-0.0516,0,0.0781,0.0851,0.0966,0.1109,0.1237,0.1277,0.1467,0.1591,0.1781,0.1904,0.1966,0.1735,0.1115,0.0462,-0.0452,-0.0964,-0.1165,-0.1268,-0.1429,-0.1475,-0.0887,-0.089,-0.1026,-0.1025,-0.1025,-0.1025,-0.1025,-0.1024,0.0822,0.0943,0.1001,0.122,0.1325,0.151,0.1625,0.1812,0.1951,0.2103,0.2127,0.21,0.16,-0.0066,-0.1201,-0.1483,-0.1867,-0.1976,-0.2156,-0.1774,-0.1739,-0.1705,-0.1742,-0.2054,-0.2055,-0.2647,-0.2654,-0.2659]}],[{"header":{"parameterUnit":"m.s-1","parameterCategory":2,"la1":30.2991,"la2":30.254,"lo1":-89.0895,"lo2":-89.0444,"dy":0.0017,"dx":0.0017,"nx":28,"ny":28,"refTime":"2024-12-02T09:00:00:Z","depth":"2","parameterNumber":2,"parameterNumberName":"U-component_of_CURRENTS"},"data":[0,0,0,0,0,0,0,0,0,0,0,0,0,0,0,0,0,0,0,0,0,0,0,0,0,0,0,0,0,0,0,0,0,0,0,0,0,0,0,0,0,0,0,0,0,0,0,0,0,0,0,0,0,0,0,0,0,0,0.3329,0.333,0,0.3376,0.3376,0.3376,0.3374,0.3374,0.3373,0.3373,0.3383,0.3384,0.3384,0,0,0,0,0,0,0,0,0,0,0,0,0,0.3239,0.3241,0.3329,0.333,0.3331,0.3376,0.3376,0.3376,0.3374,0.3374,0.3373,0.3373,0.3383,0.3384,0.3385,0,0,0,0,0,0,0,0,0,0,0,0,0,0.3277,0.3241,0.3329,0.3338,0.334,0.3376,0.3376,0.3376,0.3374,0.3374,0.3373,0.3373,0.3383,0.3384,0.3385,0.3399,0,0,0.3387,0.3388,0,0,0,0,0,0,0,0,0.3275,0.328,0.3336,0.3337,0.3339,0.3372,0.3348,0.3383,0.3374,0.3357,0.3373,0.3372,0.3379,0.338,0.3385,0.3399,0.3399,0.3387,0.3388,0.3388,0.3388,0,0,0,0,0,0,0,0.3273,0.3278,0.3343,0.3337,0.3339,0.3341,0.3345,0.3355,0.3366,0.3358,0.3359,0.3371,0.3379,0.3384,0.3385,0.34,0.3387,0.3388,0.3388,0.3389,0.3499,0.3501,0,0,0,0,0,0,0.3276,0.3276,0.3342,0.3345,0.331,0.3343,0.3348,0.3359,0.3367,0.3369,0.3371,0.3371,0.3383,0.3384,0.3385,0.3462,0.3388,0.3389,0.3389,0.3496,0.3499,0.3502,0,0,0,0,0,0,0.3274,0.3281,0.334,0.3315,0.3323,0.3345,0.3357,0.336,0.3377,0.3378,0.3378,0.3388,0.3383,0.3384,0.3417,0.3459,0.3389,0.339,0.3493,0.3497,0.3501,0.3576,0,0,0,0,0,0,0.3271,0.328,0.3291,0.3315,0.3324,0.3377,0.3358,0.3361,0.3386,0.3386,0.3392,0.3392,0.3382,0.3416,0.3418,0.3459,0.3391,0.349,0.3495,0.3499,0.357,0.3582,0.3591,0,0,0,0,0,0.3267,0.3284,0.3291,0.3299,0.3338,0.3378,0.3384,0.3395,0.3388,0.3405,0.3413,0.3392,0.3446,0.3419,0.342,0.3463,0.3488,0.3494,0.3499,0.3566,0.3579,0.3591,0,0,0,0,0,0,0.3247,0.3287,0.3294,0.3321,0.3356,0.338,0.3399,0.3406,0.3425,0.3426,0.3417,0.3418,0.3467,0.3457,0.3426,0.3511,0.3467,0.3473,0.3517,0.353,0.354,0.3551,0.3391,0,0,0,0,0,0.325,0.3275,0.3313,0.3336,0.3356,0.338,0.3398,0.341,0.3431,0.3439,0.3446,0.3461,0.349,0.3502,0.352,0.356,0.3563,0.3592,0.3603,0.3611,0.3624,0.3675,0.3691,0.352,0.352,0.352,0,0,0.3247,0.3275,0.3287,0.3335,0.3359,0.3398,0.3389,0.3427,0.3462,0.3438,0.3482,0.3496,0.351,0.356,0.3581,0.3557,0.3663,0.3618,0.3626,0.3634,0.3683,0.3699,0.3714,0.3523,0.3523,0.3522,0,0,0.326,0.3283,0.331,0.3346,0.3396,0.3418,0.3435,0.3473,0.3494,0.3539,0.3541,0.3585,0.3609,0.3642,0.3657,0.3738,0.3718,0.3743,0.3803,0.3853,0.3867,0.388,0.3902,0.3916,0.3747,0.3747,0.3747,0,0.3254,0.3295,0.3325,0.3367,0.3399,0.3431,0.3471,0.3505,0.3549,0.3578,0.3562,0.3646,0.3654,0.3735,0.3767,0.3763,0.3775,0.3749,0.3866,0.3878,0.389,0.391,0.3924,0.3751,0.3751,0.375,0.375,0,0.3289,0.3327,0.335,0.3413,0.3453,0.3494,0.3549,0.3591,0.3616,0.3648,0.3729,0.3753,0.3803,0.3821,0.3817,0.3916,0.3892,0.3872,0.3829,0.3912,0.3927,0.3941,0.3758,0.3756,0.3755,0.3754,0,0,0.3255,0.3353,0.336,0.3394,0.3481,0.3511,0.359,0.3665,0.3716,0.3767,0.3836,0.3906,0.3922,0.3943,0.3956,0.4005,0.4095,0.3978,0.3979,0.3992,0.4192,0.4156,0.4166,0.4094,0.4097,0.41,0.4168,0,0.3271,0.3341,0.3396,0.3466,0.3505,0.3573,0.3639,0.3713,0.3777,0.3852,0.3911,0.3978,0.3969,0.4001,0.4054,0.4088,0.4136,0.4077,0.4118,0.4119,0.407,0.4183,0.3846,0.3878,0.4181,0.4183,0.4185,0,0.3282,0.333,0.3395,0.3489,0.3514,0.3561,0.3671,0.3739,0.3863,0.392,0.4012,0.4051,0.4153,0.4119,0.4229,0.4192,0.4205,0.4221,0.4223,0.4174,0.4109,0.3847,0.389,0.4207,0.4205,0.4204,0.4202,0,0.3225,0.3325,0.3372,0.3404,0.3518,0.3561,0.3626,0.3751,0.3827,0.397,0.4036,0.4149,0.4211,0.4263,0.4308,0.4274,0.4411,0.4358,0.4338,0.4334,0.4048,0.4015,0.4438,0.4438,0.4437,0.4437,0.4437,0,0.3211,0.3247,0.3344,0.3367,0.3428,0.3521,0.3605,0.3704,0.3848,0.3939,0.406,0.4152,0.4254,0.4337,0.4351,0.4404,0.4449,0.438,0.4369,0.4066,0.4035,0.4315,0.4299,0.444,0.4439,0.4439,0.4438,0,0.3142,0.3208,0.3262,0.3368,0.3402,0.3442,0.3585,0.3647,0.3803,0.393,0.3981,0.418,0.4298,0.438,0.4478,0.446,0.4505,0.4503,0.4139,0.4086,0.4373,0.4361,0.4484,0.4484,0.4484,0.4483,0.4483,0,0.3114,0.3134,0.3235,0.3258,0.3304,0.338,0.3433,0.3605,0.3685,0.3933,0.3985,0.4171,0.4273,0.4427,0.444,0.4478,0.4528,0.4176,0.4063,0.4412,0.4388,0.4376,0.4365,0.3697,0.3691,0.3686,0.3681,0,0.3051,0.3086,0.3124,0.3177,0.3225,0.3279,0.3374,0.3435,0.3633,0.3752,0.3915,0.4025,0.421,0.413,0.4223,0.4193,0.4146,0.4071,0.4535,0.3761,0.3682,0.3655,0.3667,0.3633,0.3638,0.3641,0.3644,0.3646,0.299,0.2994,0.3041,0.3081,0.3128,0.3153,0.3156,0.327,0.3373,0.3507,0.371,0.3759,0.3852,0.3838,0.3754,0.3698,0.3977,0.3776,0.3786,0.3804,0.3724,0.3652,0.358,0.3584,0.3588,0.3591,0.3594,0,0.2897,0.2915,0.2944,0.2971,0.2957,0.3032,0.309,0.3056,0.3101,0.3262,0.3366,0.3164,0.3162,0.3239,0.3099,0.3148,0.3058,0.3003,0.2828,0.2882,0.2929,0.2796,0.241,0.2405,0.2401,0.2398,0,0,0.285,0.2827,0.284,0.2785,0.2799,0.2733,0.2726,0.2712,0.2771,0.2759,0.2768,0.3018,0.3159,0.2723,0.2705,0.252,0.2664,0.2428,0.3391,0.3239,0.3279,0.3407,0.3272,0,0,0,0,0]},{"header":{"parameterUnit":"m.s-1","parameterCategory":2,"la1":30.2991,"la2":30.254,"lo1":-89.0895,"lo2":-89.0444,"dy":0.0017,"dx":0.0017,"nx":28,"ny":28,"refTime":"2024-12-02T09:00:00:Z","depth":"2","parameterNumber":3,"parameterNumberName":"V-component_of_CURRENTS"},"data":[0,0,0,0,0,0,0,0,0,0,0,0,0,0,0,0,0,0,0,0,0,0,0,0,0,0,0,0,0,0,0,0,0,0,0,0,0,0,0,0,0,0,0,0,0,0,0,0,0,0,0,0,0,0,0,0,0,0,-0.001,-0.0011,0,-0.0088,-0.0089,-0.009,-0.0145,-0.0146,-0.0146,-0.0146,-0.0245,-0.0247,-0.0249,0,0,0,0,0,0,0,0,0,0,0,0,0,0.003,0.003,-0.001,-0.0011,-0.0012,-0.0088,-0.0089,-0.0091,-0.0145,-0.0146,-0.0146,-0.0146,-0.0244,-0.0247,-0.025,0,0,0,0,0,0,0,0,0,0,0,0,0,-0.0013,0.003,-0.001,-0.0047,-0.0051,-0.0088,-0.0089,-0.0091,-0.0145,-0.0146,-0.0146,-0.0146,-0.0243,-0.0247,-0.025,-0.0263,0,0,-0.0261,-0.0262,0,0,0,0,0,0,0,0,-0.001,-0.0014,-0.0041,-0.0045,-0.0049,-0.0106,-0.0111,-0.0149,-0.0145,-0.0111,-0.0146,-0.0147,-0.0199,-0.0206,-0.0222,-0.0268,-0.0272,-0.0261,-0.0263,-0.0265,-0.0266,0,0,0,0,0,0,0,-0.0007,-0.0012,-0.0043,-0.0042,-0.0047,-0.0081,-0.0087,-0.0119,-0.0153,-0.0114,-0.0118,-0.0124,-0.0202,-0.0218,-0.0225,-0.0273,-0.0261,-0.0264,-0.0266,-0.0268,-0.033,-0.033,0,0,0,0,0,0,0.0009,-0.0008,-0.004,-0.0045,-0.0029,-0.0081,-0.0088,-0.0089,-0.0152,-0.0162,-0.0124,-0.0126,-0.0212,-0.022,-0.0228,-0.0229,-0.0265,-0.0268,-0.027,-0.0331,-0.033,-0.033,0,0,0,0,0,0,0.0011,0.0007,-0.0037,-0.0028,-0.0036,-0.0081,-0.0081,-0.009,-0.0104,-0.0159,-0.017,-0.0128,-0.0213,-0.0223,-0.0249,-0.0233,-0.027,-0.0273,-0.0331,-0.033,-0.033,-0.0241,0,0,0,0,0,0,0.0012,0.0009,0.0013,-0.0026,-0.0035,-0.0046,-0.0081,-0.0091,-0.0107,-0.0111,-0.0167,-0.0177,-0.0214,-0.0243,-0.0253,-0.0239,-0.0276,-0.0332,-0.0331,-0.033,-0.0245,-0.0237,-0.0231,0,0,0,0,0,0.0014,0.0031,0.0014,0.0009,-0.0027,-0.0045,-0.0052,-0.0088,-0.0106,-0.0104,-0.0144,-0.0175,-0.0245,-0.0246,-0.0257,-0.0244,-0.0332,-0.0331,-0.033,-0.0248,-0.0239,-0.0231,0,0,0,0,0,0,0.0051,0.0026,0.0006,0.0014,-0.001,-0.0053,-0.0054,-0.008,-0.0111,-0.0114,-0.017,-0.0182,-0.0201,-0.0234,-0.0234,-0.026,-0.0293,-0.0294,-0.0227,-0.0219,-0.0213,-0.0188,-0.0279,0,0,0,0,0,0.0062,0.0066,0.0033,0.0038,0.003,-0.0012,-0.0025,-0.0046,-0.0078,-0.0093,-0.0134,-0.0174,-0.0206,-0.0221,-0.0256,-0.0268,-0.0304,-0.0267,-0.026,-0.0254,-0.0242,-0.0288,-0.0284,-0.0326,-0.0326,-0.0326,0,0,0.0077,0.0063,0.0065,0.0046,0.0023,0.003,-0.0021,-0.0028,-0.0024,-0.0098,-0.0106,-0.0155,-0.0205,-0.0219,-0.023,-0.0244,-0.0261,-0.0253,-0.0247,-0.0238,-0.0286,-0.0282,-0.0278,-0.0325,-0.0326,-0.0326,0,0,0.012,0.0099,0.0121,0.0107,0.0085,0.0063,0.0066,0.0028,0.0009,-0.0009,-0.0059,-0.0094,-0.0144,-0.0174,-0.0196,-0.0174,-0.0228,-0.0187,-0.013,-0.0174,-0.017,-0.0168,-0.0204,-0.0206,-0.018,-0.018,-0.018,0,0.014,0.0162,0.0124,0.0141,0.0143,0.0086,0.0115,0.0088,0.0045,0.0038,0.0003,-0.0071,-0.0119,-0.0131,-0.0128,-0.0157,-0.019,-0.0153,-0.0164,-0.0162,-0.0161,-0.0199,-0.0202,-0.0175,-0.0176,-0.0176,-0.0177,0,0.0198,0.0214,0.0227,0.0233,0.023,0.0243,0.0209,0.0197,0.0163,0.0132,0.0101,0.0027,-0.0013,-0.0039,-0.0079,-0.0089,-0.0118,-0.0152,-0.018,-0.0151,-0.0194,-0.0198,-0.0169,-0.0171,-0.0172,-0.0173,0,0,0.0251,0.0267,0.0272,0.0297,0.0283,0.0292,0.0299,0.0293,0.0306,0.0238,0.0243,0.0167,0.0117,0.0088,0.0027,-0.0017,-0.0047,-0.0074,-0.0079,-0.0101,-0.0139,-0.0162,-0.017,-0.0085,-0.0086,-0.0086,-0.017,0,0.0311,0.0374,0.0362,0.0423,0.0457,0.0416,0.043,0.0413,0.0381,0.0367,0.0279,0.0255,0.0169,0.015,0.0093,-0.001,-0.0055,-0.002,-0.0171,-0.0175,-0.0192,-0.0174,-0.0143,-0.0215,-0.0175,-0.0175,-0.0176,0,0.0378,0.0414,0.0486,0.053,0.054,0.0559,0.0581,0.0587,0.0546,0.0522,0.0472,0.0397,0.0327,0.0244,0.0088,0.0114,0.0,-0.009,-0.0096,-0.0149,-0.0206,-0.024,-0.0226,-0.0184,-0.0184,-0.0183,-0.0182,0,0.0448,0.0507,0.0572,0.0584,0.0615,0.0635,0.0646,0.063,0.0661,0.0619,0.0629,0.0519,0.0476,0.0318,0.0126,0.0107,-0.0051,-0.0102,-0.0229,-0.0232,-0.025,-0.0253,-0.0211,-0.0211,-0.0211,-0.0211,-0.021,0,0.0523,0.0576,0.0607,0.0641,0.0724,0.071,0.0784,0.0775,0.0784,0.0841,0.0714,0.0727,0.049,0.0366,0.0174,-0.0032,-0.0016,-0.0211,-0.0253,-0.0218,-0.0218,-0.0229,-0.023,-0.0214,-0.0213,-0.0212,-0.0212,0,0.0591,0.0607,0.0688,0.0734,0.0759,0.0814,0.089,0.0943,0.093,0.0999,0.0995,0.0888,0.0729,0.0485,0.0234,0.0049,-0.0158,-0.0239,-0.0178,-0.0211,-0.0323,-0.0319,-0.0385,-0.0387,-0.0388,-0.0389,-0.039,0,0.0631,0.0679,0.0764,0.082,0.0844,0.0926,0.099,0.1016,0.109,0.111,0.1158,0.1023,0.0961,0.0579,0.0229,-0.0102,-0.0154,-0.03,-0.0336,-0.0305,-0.034,-0.0334,-0.0328,-0.0327,-0.0327,-0.0328,-0.0328,0,0.0711,0.0733,0.0799,0.0918,0.0998,0.1106,0.1199,0.1284,0.1327,0.1383,0.1428,0.1374,0.1016,0.0686,0.0221,-0.001,-0.0247,-0.0315,-0.0297,-0.0284,-0.0257,-0.0289,-0.0284,-0.033,-0.033,-0.033,-0.0329,-0.0329,0.0767,0.0826,0.091,0.1028,0.1128,0.126,0.1365,0.1474,0.1603,0.1689,0.1632,0.1555,0.1177,0.0586,0.018,-0.0261,-0.0244,-0.0401,-0.0398,-0.0395,-0.0369,-0.0345,-0.043,-0.043,-0.043,-0.0431,-0.0431,0,0.0841,0.0908,0.1017,0.1153,0.1275,0.1317,0.1495,0.1597,0.1759,0.1817,0.1846,0.1486,0.1109,0.066,0.0017,-0.0358,-0.0393,-0.0486,-0.0439,-0.0434,-0.043,-0.0405,-0.0476,-0.0477,-0.0479,-0.048,0,0,0.0877,0.0991,0.1047,0.1252,0.1354,0.1526,0.1633,0.1777,0.1859,0.1915,0.1869,0.1779,0.1242,0.0777,0.0263,-0.0109,-0.0191,-0.0191,-0.0113,0.0008,0.0016,-0.0339,-0.029,0,0,0,0,0]}],[{"header":{"parameterUnit":"m.s-1","parameterCategory":2,"la1":30.2991,"la2":30.254,"lo1":-89.0895,"lo2":-89.0444,"dy":0.0017,"dx":0.0017,"nx":28,"ny":28,"refTime":"2024-12-02T09:00:00:Z","depth":"4","parameterNumber":2,"parameterNumberName":"U-component_of_CURRENTS"},"data":[0,0,0,0,0,0,0,0,0,0,0,0,0,0,0,0,0,0,0,0,0,0,0,0,0,0,0,0,0,0,0,0,0,0,0,0,0,0,0,0,0,0,0,0,0,0,0,0,0,0,0,0,0,0,0,0,0,0,0.2203,0.2204,0,0.229,0.229,0.2291,0.2363,0.2364,0.2365,0.2366,0.2464,0.2465,0.2467,0,0,0,0,0,0,0,0,0,0,0,0,0,0.2087,0.2088,0.2203,0.2204,0.2206,0.229,0.229,0.2291,0.2363,0.2364,0.2365,0.2366,0.2463,0.2465,0.2467,0,0,0,0,0,0,0,0,0,0,0,0,0,0.2149,0.2089,0.2203,0.2253,0.2259,0.2289,0.229,0.2292,0.2362,0.2364,0.2365,0.2367,0.2462,0.2465,0.2467,0.2453,0,0,0.2475,0.2476,0,0,0,0,0,0,0,0,0.2145,0.2153,0.2244,0.225,0.2256,0.2319,0.2286,0.2347,0.2362,0.232,0.2366,0.2367,0.2417,0.2423,0.2432,0.2457,0.2462,0.2475,0.2477,0.2478,0.2478,0,0,0,0,0,0,0,0.2141,0.2149,0.2235,0.2246,0.2253,0.2267,0.2278,0.2297,0.2357,0.2324,0.233,0.2343,0.242,0.243,0.2435,0.2463,0.2475,0.2477,0.2479,0.248,0.2637,0.2639,0,0,0,0,0,0,0.2135,0.2145,0.2232,0.2237,0.2206,0.2269,0.228,0.2295,0.2357,0.2369,0.2342,0.2346,0.2425,0.2432,0.2439,0.256,0.2478,0.248,0.2482,0.2634,0.2637,0.264,0,0,0,0,0,0,0.2132,0.2142,0.2228,0.2195,0.2208,0.2269,0.2286,0.2296,0.2357,0.2371,0.2383,0.2398,0.2426,0.2435,0.2506,0.2559,0.2481,0.2484,0.2631,0.2635,0.2639,0.2716,0,0,0,0,0,0,0.2128,0.214,0.2171,0.2195,0.221,0.228,0.2285,0.2297,0.2361,0.2369,0.2421,0.2429,0.2428,0.2503,0.2509,0.2561,0.2485,0.2627,0.2633,0.2637,0.271,0.2722,0.2732,0,0,0,0,0,0.2124,0.2152,0.2172,0.2184,0.2243,0.2282,0.2292,0.2337,0.2362,0.2396,0.2439,0.243,0.2539,0.2506,0.2513,0.2568,0.2625,0.2631,0.2637,0.2705,0.2719,0.2732,0,0,0,0,0,0,0.2118,0.2162,0.2185,0.2227,0.2269,0.2296,0.2338,0.2364,0.2423,0.2448,0.2458,0.2469,0.2552,0.2551,0.2515,0.263,0.2583,0.259,0.2632,0.2646,0.2657,0.2659,0.2488,0,0,0,0,0,0.213,0.2169,0.2206,0.2247,0.2272,0.2314,0.2346,0.2378,0.2421,0.2451,0.2488,0.2532,0.2572,0.2604,0.2635,0.2693,0.2695,0.2736,0.2747,0.2756,0.2765,0.2816,0.2832,0.266,0.266,0.2659,0,0,0.214,0.2172,0.2195,0.2251,0.2289,0.2331,0.2339,0.2402,0.245,0.245,0.2544,0.2574,0.2597,0.2667,0.2704,0.268,0.2809,0.2764,0.2771,0.2775,0.2824,0.284,0.2855,0.2664,0.2663,0.2662,0,0,0.2163,0.221,0.2246,0.2286,0.2354,0.2378,0.2408,0.2466,0.2513,0.2589,0.2609,0.2675,0.2735,0.2764,0.2782,0.2874,0.2866,0.2895,0.2955,0.3005,0.3019,0.3031,0.3058,0.3073,0.2901,0.2901,0.2901,0,0.2177,0.2224,0.2265,0.2309,0.235,0.2405,0.2451,0.2501,0.258,0.2623,0.2636,0.2755,0.2777,0.2856,0.2895,0.2899,0.2921,0.2897,0.3018,0.303,0.3041,0.3066,0.3081,0.2905,0.2905,0.2905,0.2904,0,0.2211,0.2268,0.2297,0.2369,0.2418,0.2472,0.2536,0.2606,0.2669,0.2712,0.2824,0.2863,0.2932,0.2956,0.2956,0.3057,0.3044,0.3023,0.2978,0.3063,0.3084,0.3098,0.2912,0.291,0.2909,0.2908,0,0,0.2183,0.2297,0.2312,0.2358,0.2458,0.2493,0.2591,0.2678,0.275,0.2837,0.2926,0.3009,0.3046,0.307,0.309,0.3137,0.3237,0.3127,0.3128,0.3144,0.3348,0.3142,0.3137,0.3245,0.3248,0.325,0.333,0,0.2201,0.2283,0.2342,0.2432,0.2477,0.2565,0.2643,0.2737,0.2823,0.2925,0.2994,0.3087,0.3084,0.3138,0.3189,0.3231,0.3278,0.3217,0.3272,0.3273,0.3071,0.3147,0.3259,0.334,0.3343,0.3346,0.3347,0,0.2202,0.2262,0.2348,0.2464,0.2494,0.2563,0.2701,0.2782,0.2928,0.3002,0.311,0.3167,0.3277,0.3253,0.3368,0.3336,0.3358,0.3373,0.3375,0.3164,0.3092,0.3239,0.3372,0.337,0.3368,0.3366,0.3365,0,0.2136,0.226,0.2331,0.2371,0.2511,0.2582,0.267,0.2814,0.2898,0.3068,0.3147,0.3268,0.3352,0.3407,0.3457,0.3432,0.3559,0.3517,0.3349,0.3334,0.346,0.3446,0.3593,0.3593,0.3593,0.3592,0.3592,0,0.2101,0.2164,0.2316,0.2351,0.245,0.2563,0.2683,0.2793,0.2955,0.3045,0.3191,0.3268,0.3401,0.3482,0.35,0.3465,0.3598,0.3369,0.3345,0.3491,0.348,0.3469,0.3454,0.3595,0.3595,0.3594,0.3594,0,0.2012,0.2113,0.2201,0.2363,0.2422,0.2496,0.2684,0.2759,0.2936,0.3063,0.3127,0.3311,0.3405,0.3498,0.3592,0.3499,0.3497,0.3452,0.3616,0.3598,0.3227,0.3216,0.3256,0.3249,0.3244,0.3239,0.3235,0,0.1967,0.2007,0.2189,0.2244,0.2327,0.2457,0.2539,0.2733,0.281,0.305,0.3088,0.3261,0.3352,0.3315,0.3434,0.3448,0.341,0.3383,0.3286,0.3222,0.3196,0.3193,0.3189,0.3226,0.3225,0.3224,0.3222,0,0.1877,0.1965,0.2036,0.2155,0.2255,0.2343,0.2478,0.2516,0.2722,0.2909,0.2967,0.3018,0.3118,0.3176,0.322,0.3224,0.3381,0.3324,0.3335,0.3243,0.3187,0.3166,0.3168,0.3203,0.3206,0.3208,0.3209,0,0.1814,0.184,0.195,0.2036,0.2152,0.219,0.2278,0.2357,0.2456,0.2709,0.2722,0.2903,0.3075,0.3062,0.3103,0.3093,0.3037,0.2923,0.2953,0.2976,0.2848,0.2734,0.2597,0,0,0,0,0,0.1735,0.1749,0.1818,0.1897,0.2003,0.2068,0.2217,0.2305,0.2501,0.2468,0.2584,0.2657,0.2715,0.282,0.2752,0.2994,0.3059,0.2903,0.2946,0.3097,0.3119,0.2995,0,0,0,0,0,0,0.1679,0.174,0.1765,0.1763,0.1787,0.1879,0.1961,0.2092,0.2081,0.229,0.2335,0.2496,0.2597,0.272,0.27,0.2731,0.2702,0.3025,0.3018,0.3084,0.3104,0.3122,0.3002,0,0,0,0,0]},{"header":{"parameterUnit":"m.s-1","parameterCategory":2,"la1":30.2991,"la2":30.254,"lo1":-89.0895,"lo2":-89.0444,"dy":0.0017,"dx":0.0017,"nx":28,"ny":28,"refTime":"2024-12-02T09:00:00:Z","depth":"4","parameterNumber":3,"parameterNumberName":"V-component_of_CURRENTS"},"data":[0,0,0,0,0,0,0,0,0,0,0,0,0,0,0,0,0,0,0,0,0,0,0,0,0,0,0,0,0,0,0,0,0,0,0,0,0,0,0,0,0,0,0,0,0,0,0,0,0,0,0,0,0,0,0,0,0,0,0.0092,0.0091,0,0.0039,0.0038,0.0037,-0.0002,-0.0002,-0.0002,-0.0002,-0.0075,-0.0077,-0.0079,0,0,0,0,0,0,0,0,0,0,0,0,0,0.0117,0.0117,0.0092,0.0091,0.009,0.0039,0.0038,0.0037,-0.0002,-0.0002,-0.0002,-0.0003,-0.0075,-0.0077,-0.0079,0,0,0,0,0,0,0,0,0,0,0,0,0,0.0089,0.0117,0.0092,0.0066,0.0063,0.0039,0.0038,0.0037,-0.0002,-0.0002,-0.0002,-0.0003,-0.0074,-0.0076,-0.0079,-0.0087,0,0,-0.0087,-0.0088,0,0,0,0,0,0,0,0,0.0091,0.0088,0.007,0.0067,0.0064,0.0025,0.002,-0.0005,-0.0001,0.0022,-0.0002,-0.0003,-0.0043,-0.0048,-0.0058,-0.009,-0.0093,-0.0087,-0.0089,-0.009,-0.009,0,0,0,0,0,0,0,0.0093,0.009,0.007,0.0069,0.0066,0.0042,0.0038,0.0015,-0.0008,0.002,0.0017,0.0013,-0.0045,-0.0055,-0.006,-0.0095,-0.0087,-0.0089,-0.0091,-0.0092,-0.0133,-0.0133,0,0,0,0,0,0,0.0104,0.0092,0.0071,0.0068,0.0078,0.0042,0.0037,0.0038,-0.0008,-0.0015,0.0013,0.0011,-0.0051,-0.0057,-0.0063,-0.0057,-0.009,-0.0092,-0.0093,-0.0134,-0.0133,-0.0133,0,0,0,0,0,0,0.0104,0.0102,0.0074,0.0079,0.0074,0.0043,0.0043,0.0037,0.0028,-0.0013,-0.002,0.0011,-0.0051,-0.0059,-0.0077,-0.0061,-0.0093,-0.0095,-0.0134,-0.0134,-0.0133,-0.0057,0,0,0,0,0,0,0.0105,0.0103,0.0107,0.008,0.0074,0.0069,0.0043,0.0036,0.0026,0.0023,-0.0017,-0.0025,-0.0052,-0.0073,-0.0079,-0.0065,-0.0097,-0.0135,-0.0134,-0.0133,-0.006,-0.0054,-0.0048,0,0,0,0,0,0.0107,0.012,0.0108,0.0106,0.0081,0.0069,0.0064,0.0039,0.0026,0.0029,0.0,-0.0023,-0.0073,-0.0074,-0.0082,-0.0068,-0.0135,-0.0134,-0.0133,-0.0062,-0.0055,-0.0048,0,0,0,0,0,0,0.0133,0.0116,0.0103,0.011,0.0093,0.0063,0.0064,0.0045,0.0024,0.0022,-0.0019,-0.0028,-0.004,-0.0065,-0.0066,-0.0079,-0.0108,-0.0108,-0.0051,-0.0044,-0.0039,-0.0022,-0.01,0,0,0,0,0,0.0141,0.0147,0.0123,0.0128,0.0123,0.0094,0.0086,0.007,0.0048,0.0038,0.0008,-0.0021,-0.0042,-0.0051,-0.0078,-0.0082,-0.0118,-0.0079,-0.0073,-0.0068,-0.006,-0.0105,-0.0102,-0.013,-0.013,-0.013,0,0,0.0153,0.0144,0.0147,0.0134,0.0119,0.0127,0.0088,0.0084,0.009,0.0034,0.0031,-0.0004,-0.0041,-0.0047,-0.0054,-0.0064,-0.0079,-0.0066,-0.0062,-0.0057,-0.0103,-0.0101,-0.0098,-0.0129,-0.0129,-0.0129,0,0,0.0186,0.0172,0.019,0.0181,0.0167,0.0152,0.0155,0.0128,0.0116,0.0106,0.0069,0.0045,0.0011,-0.0009,-0.0024,-0.0003,-0.0051,-0.0011,0.0038,-0.0005,-0.0003,-0.0002,-0.0043,-0.0046,-0.0003,-0.0003,-0.0002,0,0.0201,0.0219,0.0193,0.0207,0.0211,0.017,0.0194,0.0177,0.0147,0.0143,0.0116,0.0065,0.0031,0.0027,0.0034,0.0012,-0.0022,0.0017,0.0003,0.0003,0.0003,-0.0039,-0.0043,0.0001,0.0001,0.0,0.0,0,0.0244,0.026,0.027,0.0279,0.0279,0.0291,0.027,0.0263,0.024,0.0219,0.0199,0.0145,0.0118,0.0101,0.0074,0.0066,0.0038,0.0012,-0.0011,0.0011,-0.0035,-0.0041,0.0007,0.0005,0.0004,0.0003,0,0,0.0279,0.0299,0.0304,0.0326,0.0321,0.033,0.0341,0.0341,0.0353,0.0305,0.031,0.0261,0.0222,0.0202,0.0159,0.0122,0.0089,0.0075,0.0071,0.0041,-0.0006,-0.002,-0.0029,0.0059,0.0058,0.0057,-0.0038,0,0.0324,0.0375,0.0371,0.0424,0.0451,0.0427,0.0444,0.0435,0.0414,0.0405,0.0341,0.0326,0.0265,0.0253,0.0206,0.0119,0.0077,0.0117,-0.0029,-0.0033,-0.0044,-0.0035,0.0056,-0.0042,-0.0044,-0.0045,-0.0046,0,0.037,0.0401,0.0462,0.0505,0.0515,0.0538,0.0562,0.0572,0.0544,0.0526,0.049,0.0433,0.0379,0.0318,0.0181,0.0209,0.0112,0.0036,0.003,-0.0013,-0.0058,-0.0072,-0.0057,-0.0056,-0.0055,-0.0054,-0.0054,0,0.0413,0.0468,0.0524,0.0536,0.0572,0.0596,0.0613,0.0608,0.0634,0.0604,0.061,0.0522,0.0485,0.0353,0.0194,0.0187,0.0032,0.0,-0.0105,-0.0108,-0.0101,-0.0102,-0.0099,-0.0099,-0.0099,-0.0099,-0.0099,0,0.046,0.0507,0.055,0.0578,0.0653,0.0652,0.0719,0.0718,0.0729,0.0765,0.0678,0.0674,0.0491,0.0379,0.0222,0.0045,0.005,-0.0094,-0.0132,-0.0067,-0.0062,-0.0105,-0.0105,-0.0102,-0.0102,-0.0101,-0.01,0,0.0497,0.0522,0.0592,0.0647,0.0676,0.0725,0.0803,0.0844,0.0843,0.0885,0.0882,0.0789,0.0641,0.0448,0.023,0.0095,-0.0082,-0.0149,-0.0057,-0.0089,-0.0202,-0.0196,-0.0272,-0.0273,-0.0274,-0.0275,-0.0276,0,0.0518,0.0557,0.0647,0.0697,0.0728,0.0807,0.0866,0.09,0.0948,0.0954,0.0974,0.0856,0.0765,0.0459,0.0242,-0.0055,-0.0104,-0.0201,-0.0211,-0.019,-0.0219,-0.0212,-0.0205,-0.0278,-0.0278,-0.0278,-0.0278,0,0.0558,0.0589,0.0646,0.0752,0.0828,0.0922,0.1002,0.1049,0.1083,0.1091,0.1052,0.0891,0.0722,0.0469,0.0239,0.0023,-0.0141,-0.0213,-0.0213,-0.0223,-0.0198,-0.0224,-0.0216,-0.0282,-0.0282,-0.0281,-0.0281,0,0.0586,0.0629,0.0704,0.08,0.0902,0.0994,0.104,0.1091,0.1137,0.1136,0.112,0.0933,0.0827,0.0509,0.0298,0.0084,0.0019,-0.0064,-0.0072,-0.0071,0.0007,0.007,0.0041,0,0,0,0,0,0.0609,0.0658,0.0747,0.0847,0.0949,0.1012,0.1114,0.1148,0.1187,0.1171,0.1148,0.0989,0.0677,0.0547,0.0331,0.0258,-0.003,-0.0006,-0.0132,-0.0302,-0.0298,-0.0243,0,0,0,0,0,0,0.0619,0.0701,0.0744,0.0869,0.0944,0.1061,0.1128,0.1158,0.1149,0.1152,0.0997,0.0921,0.0625,0.0803,0.0324,0.0259,0.0144,-0.0146,-0.0152,-0.0305,-0.0301,-0.0298,-0.0239,0,0,0,0,0]}]]